Location: Bu�n Treun
(12.1333°N, 108.3167°E)
Time: 12:37:18
(UTC+00:00)

NOAA 19 - Visible Passes

Search period start: 21 September 2021 00:00
Search period end: 01 October 2021 00:00
Orbit: 841 x 860 km, 99.2° (Epoch: 21 September)

Date Brightness Start Highest point End Pass type
(mag) Time Alt. Az. Time Alt. Az. Time Alt. Az.
21 Sep 5.8 11:05:55 10° SE 11:10:56 36° ENE 11:15:56 10° N visible
21 Sep 7.9 12:47:58 10° SW 12:51:23 17° W 12:54:50 10° WNW visible
22 Sep 6.2 10:54:40 10° SE 10:59:12 26° ENE 11:03:44 10° NNE visible
22 Sep 7.4 12:35:19 10° SSW 12:39:36 23° W 12:43:53 10° NW visible
23 Sep 7.0 12:22:58 10° SSW 12:27:49 31° WSW 12:32:40 10° NW visible
24 Sep 6.4 12:10:49 10° S 12:16:02 43° WSW 12:21:15 10° NNW visible
25 Sep 5.8 11:58:49 10° S 12:04:15 59° WSW 12:09:42 10° NNW visible
26 Sep 5.3 11:46:57 10° S 11:52:29 80° WSW 11:58:02 10° NNW visible
27 Sep 5.1 11:35:12 10° SSE 11:40:43 76° ENE 11:46:16 10° N visible
28 Sep 5.3 11:23:34 10° SSE 11:28:58 56° ENE 11:34:22 10° N visible
29 Sep 5.6 11:12:04 10° SE 11:17:14 41° ENE 11:22:23 10° N visible
29 Sep 8.0 12:54:47 10° SW 12:57:43 15° W 13:00:40 10° WNW visible
30 Sep 6.0 11:00:44 10° SE 11:05:30 30° ENE 11:10:16 10° NNE visible
30 Sep 7.6 12:41:58 10° SSW 12:45:55 20° W 12:49:54 10° NW visible
